Change the Weather History Date:

Saturday, June 8, 2013

  Actual Average Record
Temperature  
Mean Temperature 66 °F -  
Max Temperature 75 °F 73 °F 86 °F (2011)
Min Temperature 58 °F 53 °F 41 °F (2006)
Cooling Degree Days 2    
Growing Degree Days 16 (Base 50)    
Moisture  
Dew Point 60 °F    
Average Humidity 78    
Maximum Humidity 100    
Minimum Humidity 46    
Precipitation  
Precipitation 0.20 in 0.09 in - ()
Sea Level Pressure  
Sea Level Pressure 29.98 in    
Wind  
Wind Speed 3 mph ()    
Max Wind Speed 9 mph    
Max Gust Speed -    
Visibility 6.1 miles    
Events Fog , Rain , Thunderstorm    
Averages and records for this station are not official NWS values.
T = Trace of Precipitation, MM = Missing Value Source: Averaged Metar Reports

Daily Weather History Graph

Daily Weather History Graph

Search for Another Location

Airport or City:

Trip Planner

Search our weather history database for the weather conditions in past years. The results will help you decide how hot, cold, wet, or windy it might be!

Date:

Astronomy

Jun. 08, 2013 Rise Set
Actual Time 4:16 AM CEST 8:54 PM CEST
Civil Twilight 3:28 AM CEST 9:42 PM CEST
Nautical Twilight 2:13 AM CEST 10:58 PM CEST
Astronomical Twilight 1:07 AM CEST 12:02 AM CEST
Moon 4:19 AM CEST (6/8) 8:33 PM CEST (6/8)
Length of Visible Light 18h 14m
Length of Day
16h 37m
Waning Crescent, 0% of the Moon is Illuminated
Jun 8
Waning Crescent
Jun 8
New
Jun 16
First Quarter
Jun 23
Full
Jun 30
Last Quarter

Hourly Weather History & Observations

Time (CEST) Temp. Dew Point Humidity Pressure Visibility Wind Dir Wind Speed Gust Speed Precip Events Conditions
12:00 AM 62.6 °F 60.8 °F 94% 30.04 in 6.2 mi Variable 1.2 mph - N/A Fog Shallow Fog
12:30 AM 62.6 °F 60.8 °F 94% 30.04 in 6.2 mi Variable 2.3 mph - N/A Fog Shallow Fog
1:00 AM 60.8 °F 59.0 °F 94% 30.04 in 5.0 mi Variable 2.3 mph - N/A Fog Fog
1:30 AM 60.8 °F 60.8 °F 100% 30.04 in 5.0 mi Variable 2.3 mph - N/A Fog Fog
2:00 AM 62 °F 60 °F 93% 30.04 in 4 mi West 2.2 mph - - Fog Patches of Fog
2:00 AM 60.8 °F 59.0 °F 94% 30.04 in 3.7 mi Variable 2.3 mph - N/A Fog Fog
2:30 AM 60.8 °F 59.0 °F 94% 30.04 in 2.5 mi WNW 2.3 mph - N/A Fog Fog
3:00 AM 60.8 °F 59.0 °F 94% 30.01 in 1.9 mi Variable 2.3 mph - N/A Fog Fog
3:30 AM 59.0 °F 57.2 °F 94% 30.01 in 2.5 mi Variable 1.2 mph - N/A Fog Fog
4:00 AM 59.0 °F 57.2 °F 94% 30.01 in 2.5 mi NW 4.6 mph - N/A Fog Fog
4:30 AM 59.0 °F 59.0 °F 100% 30.01 in 1.2 mi Variable 1.2 mph - N/A Fog Fog
5:00 AM 59 °F 59 °F 99% 30.02 in 1 mi Calm Calm - - Fog Patches of Fog
5:00 AM 59.0 °F 59.0 °F 100% 30.01 in 1.2 mi Calm Calm - N/A Fog Fog
5:30 AM 59.0 °F 59.0 °F 100% 30.01 in 1.2 mi SW 1.2 mph - N/A Fog Fog
6:00 AM 59.0 °F 59.0 °F 100% 30.01 in 1.1 mi Calm Calm - N/A   Mist
6:30 AM 60.8 °F 60.8 °F 100% 30.01 in 2.5 mi Calm Calm - N/A   Mist
7:00 AM 64.4 °F 62.6 °F 94% 30.01 in - Variable 1.2 mph - N/A   Clear
7:30 AM 66.2 °F 62.6 °F 88% 30.01 in - Calm Calm - N/A   Clear
8:00 AM 67 °F 61 °F 77% 30.02 in 9 mi Calm Calm - -   Partly Cloudy
8:00 AM 68.0 °F 62.6 °F 83% 30.01 in 6.2 mi Calm Calm - N/A   Scattered Clouds
8:30 AM 69.8 °F 62.6 °F 78% 30.01 in 6.2 mi Calm Calm - N/A   Scattered Clouds
9:00 AM 69.8 °F 62.6 °F 78% 30.01 in 6.2 mi Variable 1.2 mph - N/A   Partly Cloudy
9:30 AM 71.6 °F 60.8 °F 69% 30.01 in 6.2 mi Variable 1.2 mph - N/A   Partly Cloudy
10:00 AM 71.6 °F 59.0 °F 64% 30.01 in 6.2 mi Variable 2.3 mph - N/A   Partly Cloudy
10:30 AM 71.6 °F 60.8 °F 69% 30.01 in 6.2 mi North 5.8 mph - N/A   Scattered Clouds
11:00 AM 69 °F 61 °F 69% 30.01 in 9 mi West 6.7 mph - - Rain Light Rain Showers
11:00 AM 68.0 °F 62.6 °F 83% 30.01 in 6.2 mi NW 8.1 mph - N/A Rain Light Rain Showers
11:30 AM 68.0 °F 60.8 °F 78% 30.01 in 6.2 mi WNW 4.6 mph - N/A Rain Light Rain Showers
12:00 PM 69.8 °F 62.6 °F 78% 30.01 in 6.2 mi WNW 4.6 mph - N/A Rain Light Rain Showers
12:30 PM 71.6 °F 59.0 °F 64% 30.01 in 6.2 mi NNW 9.2 mph - N/A   Partly Cloudy
1:00 PM 73.4 °F 62.6 °F 69% 29.98 in 6.2 mi NNW 6.9 mph - N/A   Scattered Clouds
1:30 PM 73.4 °F 60.8 °F 65% 29.98 in 6.2 mi NW 6.9 mph - N/A   Partly Cloudy
2:00 PM 73 °F 58 °F 50% 29.97 in 19 mi NNW 8.9 mph - -   Partly Cloudy
2:00 PM 73.4 °F 59.0 °F 61% 29.98 in 6.2 mi NW 6.9 mph - N/A   Partly Cloudy
2:30 PM 71.6 °F 59.0 °F 64% 29.98 in 6.2 mi North 5.8 mph - N/A   Scattered Clouds
3:00 PM 73.4 °F 59.0 °F 61% 29.98 in 6.2 mi NW 5.8 mph - N/A   Scattered Clouds
3:30 PM 73.4 °F 57.2 °F 57% 29.95 in 6.2 mi NW 5.8 mph - N/A   Scattered Clouds
4:00 PM 75.2 °F 59.0 °F 57% 29.95 in 6.2 mi North 5.8 mph - N/A Thunderstorm Scattered Clouds
4:30 PM 75.2 °F 60.8 °F 61% 29.95 in 6.2 mi NE 5.8 mph - N/A   Scattered Clouds
5:00 PM 75 °F 58 °F 46% 29.93 in 19 mi East 6.7 mph - - Thunderstorm Light Thunderstorm
5:00 PM 75.2 °F 59.0 °F 57% 29.95 in 6.2 mi ESE 5.8 mph - N/A   Scattered Clouds
5:30 PM 75.2 °F 57.2 °F 53% 29.92 in 6.2 mi ESE 4.6 mph - N/A   Partly Cloudy
6:00 PM 75.2 °F 59.0 °F 57% 29.92 in 6.2 mi Variable 2.3 mph - N/A   Partly Cloudy
6:30 PM 73.4 °F 59.0 °F 61% 29.92 in 6.2 mi Variable 2.3 mph - N/A   Partly Cloudy
7:00 PM 73.4 °F 57.2 °F 57% 29.92 in 6.2 mi South 5.8 mph - N/A   Partly Cloudy
7:30 PM 71.6 °F 59.0 °F 64% 29.92 in - Variable 3.5 mph - N/A   Clear
8:00 PM 71 °F 59 °F 58% 29.91 in 19 mi Calm Calm - -   Partly Cloudy
8:00 PM 71.6 °F 59.0 °F 64% 29.92 in - Variable 2.3 mph - N/A   Clear
8:30 PM 69.8 °F 59.0 °F 68% 29.92 in - South 1.2 mph - N/A   Clear
9:00 PM 66.2 °F 59.0 °F 78% 29.92 in - Variable 1.2 mph - N/A   Clear
9:30 PM 66.2 °F 60.8 °F 83% 29.92 in - Variable 2.3 mph - N/A   Clear
10:00 PM 66.2 °F 60.8 °F 83% 29.92 in - Variable 2.3 mph - N/A   Clear
10:30 PM 66.2 °F 60.8 °F 83% 29.92 in - West 3.5 mph - N/A   Clear
11:00 PM 63 °F 60 °F 86% 29.92 in 9 mi Calm Calm - -   Scattered Clouds
11:00 PM 62.6 °F 59.0 °F 88% 29.92 in - Variable 3.5 mph - N/A   Clear
11:30 PM 62.6 °F 60.8 °F 94% 29.92 in 6.2 mi Variable 3.5 mph - N/A Fog Shallow Fog